TimeCET,TemperatureF,Dew PointF,Humidity,Sea Level PressureIn,VisibilityMPH,Wind Direction,Wind SpeedMPH,Gust SpeedMPH,PrecipitationIn,Events,Conditions,WindDirDegrees,DateUTC
12:15 AM,33.8,33.8,100,30.15,3.7,SSW,2.2,-,N/A,,Clear,200,2012-11-09 23:15:00
12:45 AM,33.8,32.0,93,30.12,3.7,South,2.2,-,N/A,,Clear,180,2012-11-09 23:45:00
1:15 AM,30.2,30.2,100,30.12,5.0,Calm,Calm,-,N/A,,Clear,0,2012-11-10 00:15:00
1:45 AM,32.0,30.2,93,30.12,3.7,Calm,Calm,-,N/A,,Clear,0,2012-11-10 00:45:00
2:13 AM,32.0,30.2,93,30.12,3.1,Calm,Calm,-,N/A,,Partly Cloudy,0,2012-11-10 01:13:00
2:15 AM,32.0,32.0,100,30.12,3.1,Calm,Calm,-,N/A,,Partly Cloudy,0,2012-11-10 01:15:00
2:45 AM,33.8,33.8,100,30.12,3.1,Calm,Calm,-,N/A,,Partly Cloudy,0,2012-11-10 01:45:00
3:15 AM,42.8,39.2,87,30.09,3.1,SSE,8.9,-,N/A,,Partly Cloudy,160,2012-11-10 02:15:00
3:45 AM,42.8,39.2,87,30.09,3.7,South,8.9,-,N/A,,Unknown,170,2012-11-10 02:45:00
4:15 AM,42.8,37.4,81,30.09,5.0,South,8.9,-,N/A,,Unknown,170,2012-11-10 03:15:00
4:45 AM,42.8,37.4,81,30.09,-9999.0,South,8.9,-,N/A,,Clear,170,2012-11-10 03:45:00
5:15 AM,44.6,37.4,76,30.09,-9999.0,South,11.2,-,N/A,,Clear,180,2012-11-10 04:15:00
5:45 AM,-9999,-9999,N/A,-9999,-9999.0,South,11.2,-,N/A,,Clear,180,2012-11-10 04:45:00
6:15 AM,44.6,39.2,81,30.09,-9999.0,South,8.9,-,N/A,,Clear,170,2012-11-10 05:15:00
6:45 AM,42.8,37.4,81,30.09,-9999.0,South,8.9,-,N/A,,Clear,170,2012-11-10 05:45:00
7:15 AM,42.8,39.2,87,30.09,-9999.0,South,6.7,-,N/A,,Clear,180,2012-11-10 06:15:00
7:45 AM,44.6,39.2,81,30.09,-9999.0,South,8.9,-,N/A,,Clear,180,2012-11-10 06:45:00
8:15 AM,44.6,39.2,81,30.09,-9999.0,South,11.2,-,N/A,,Clear,180,2012-11-10 07:15:00
8:45 AM,-9999,-9999,N/A,-9999,-9999.0,South,11.2,-,N/A,,Clear,180,2012-11-10 07:45:00
9:15 AM,46.4,39.2,76,30.09,-9999.0,South,13.4,-,N/A,,Clear,170,2012-11-10 08:15:00
9:45 AM,48.2,39.2,71,30.09,-9999.0,SSE,15.7,-,N/A,,Clear,150,2012-11-10 08:45:00
9:54 AM,50.0,39.2,66,30.09,-9999.0,SSE,15.7,26.8,N/A,,Clear,150,2012-11-10 08:54:00
10:15 AM,50.0,39.2,66,30.09,-9999.0,SSE,15.7,-,N/A,,Clear,150,2012-11-10 09:15:00
10:45 AM,50.0,39.2,66,30.09,-9999.0,South,8.9,20.1,N/A,,Clear,170,2012-11-10 09:45:00
11:15 AM,50.0,39.2,66,30.06,-9999.0,SE,15.7,-,N/A,,Clear,140,2012-11-10 10:15:00
11:45 AM,-9999,-9999,N/A,-9999,-9999.0,South,11.2,-,N/A,,Clear,180,2012-11-10 10:45:00
12:15 PM,48.2,39.2,71,30.06,-9999.0,SE,17.9,-,N/A,,Clear,140,2012-11-10 11:15:00
12:45 PM,48.2,39.2,71,30.04,-9999.0,SSE,13.4,-,N/A,,Clear,160,2012-11-10 11:45:00
1:15 PM,48.2,41.0,76,30.01,-9999.0,SSE,13.4,-,N/A,,Clear,150,2012-11-10 12:15:00
1:45 PM,48.2,41.0,76,30.01,-9999.0,SSE,13.4,-,N/A,,Clear,150,2012-11-10 12:45:00
2:15 PM,50.0,41.0,71,30.01,-9999.0,South,15.7,-,N/A,,Clear,180,2012-11-10 13:15:00
2:45 PM,-9999,-9999,N/A,-9999,-9999.0,SSE,13.4,-,N/A,,Clear,160,2012-11-10 13:45:00
3:15 PM,50.0,41.0,71,30.01,-9999.0,SSE,13.4,-,N/A,,Clear,160,2012-11-10 14:15:00
3:45 PM,48.2,41.0,76,29.98,-9999.0,SSE,11.2,22.4,N/A,,Clear,160,2012-11-10 14:45:00
4:15 PM,48.2,39.2,71,29.98,-9999.0,South,13.4,-,N/A,,Clear,170,2012-11-10 15:15:00
4:45 PM,48.2,39.2,71,30.01,-9999.0,South,13.4,-,N/A,,Clear,170,2012-11-10 15:45:00
5:15 PM,48.2,39.2,71,29.98,-9999.0,South,13.4,-,N/A,,Clear,170,2012-11-10 16:15:00
5:45 PM,-9999,-9999,N/A,-9999,-9999.0,South,13.4,-,N/A,,Clear,170,2012-11-10 16:45:00
6:15 PM,48.2,37.4,66,29.98,-9999.0,South,15.7,-,N/A,,Clear,170,2012-11-10 17:15:00
6:45 PM,46.4,39.2,76,29.98,-9999.0,South,15.7,26.8,N/A,,Clear,170,2012-11-10 17:45:00
7:15 PM,48.2,37.4,66,29.98,-9999.0,SSE,17.9,-,N/A,,Clear,160,2012-11-10 18:15:00
7:45 PM,46.4,39.2,76,29.98,-9999.0,SSE,15.7,-,N/A,,Clear,160,2012-11-10 18:45:00
8:15 PM,46.4,39.2,76,29.98,-9999.0,SSE,13.4,-,N/A,,Clear,160,2012-11-10 19:15:00
8:45 PM,-9999,-9999,N/A,-9999,-9999.0,South,13.4,-,N/A,,Clear,170,2012-11-10 19:45:00
8:55 PM,48.2,39.2,71,29.98,-9999.0,South,15.7,26.8,N/A,,Clear,170,2012-11-10 19:55:00
9:15 PM,48.2,41.0,76,29.98,-9999.0,SSE,15.7,26.8,N/A,,Clear,150,2012-11-10 20:15:00
9:45 PM,48.2,41.0,76,29.98,-9999.0,SSE,15.7,26.8,N/A,,Clear,160,2012-11-10 20:45:00
10:15 PM,48.2,41.0,76,29.98,-9999.0,SSE,15.7,26.8,N/A,,Clear,160,2012-11-10 21:15:00
10:45 PM,48.2,41.0,76,29.98,-9999.0,SSE,15.7,26.8,N/A,,Clear,150,2012-11-10 21:45:00
11:15 PM,48.2,41.0,76,29.98,-9999.0,SSE,17.9,-,N/A,,Clear,160,2012-11-10 22:15:00
11:45 PM,-9999,-9999,N/A,-9999,0.7,North,-9999.0,-,N/A,,Unknown,0,2012-11-10 22:45:00